Time,TemperatureF,DewpointF,PressureIn,WindDirection,WindDirectionDegrees,WindSpeedMPH,WindSpeedGustMPH,Humidity,HourlyPrecipIn,Conditions,Clouds,dailyrainin,SolarRadiationWatts/m^2,SoftwareType,DateUTC
2013-05-18 00:03:00,63.0,56.0,-100.00,SSW,202,1.0,5.0,77,0.00,,,0.00,0.000000,,2013-05-18 04:03:00,
2013-05-18 00:33:00,60.0,58.0,-100.00,South,178,2.0,5.0,94,0.02,,,0.02,0.000000,,2013-05-18 04:33:00,
2013-05-18 00:43:00,60.0,58.0,-100.00,South,178,2.0,5.0,94,0.02,,,0.02,0.000000,,2013-05-18 04:43:00,
2013-05-18 00:53:00,60.0,58.0,-100.00,South,178,2.0,5.0,94,0.02,,,0.02,0.000000,,2013-05-18 04:53:00,
2013-05-18 01:02:00,60.0,58.0,-100.00,South,178,2.0,5.0,94,0.02,,,0.02,0.000000,,2013-05-18 05:02:00,
2013-05-18 01:32:00,60.0,59.0,-100.00,WNW,299,1.0,2.0,97,0.08,,,0.10,0.000000,,2013-05-18 05:32:00,
2013-05-18 01:42:00,60.0,59.0,-100.00,WNW,299,1.0,2.0,97,0.08,,,0.10,0.000000,,2013-05-18 05:42:00,
2013-05-18 01:52:00,60.0,59.0,-100.00,WNW,299,1.0,2.0,97,0.08,,,0.10,0.000000,,2013-05-18 05:52:00,
2013-05-18 02:02:00,60.0,59.0,-100.00,WNW,299,1.0,2.0,97,0.08,,,0.10,0.000000,,2013-05-18 06:02:00,
2013-05-18 02:32:00,61.0,60.0,-100.00,SSE,155,3.0,6.0,97,0.06,,,0.16,0.000000,,2013-05-18 06:32:00,
2013-05-18 02:42:00,61.0,60.0,-100.00,SSE,155,3.0,6.0,97,0.06,,,0.16,0.000000,,2013-05-18 06:42:00,
2013-05-18 02:52:00,61.0,60.0,-100.00,SSE,155,3.0,6.0,97,0.06,,,0.16,0.000000,,2013-05-18 06:52:00,
2013-05-18 03:01:00,61.0,60.0,-100.00,SSE,155,3.0,6.0,97,0.06,,,0.16,0.000000,,2013-05-18 07:01:00,
2013-05-18 03:32:00,61.0,60.0,-100.00,North,0,1.0,7.0,95,0.05,,,0.21,0.000000,,2013-05-18 07:32:00,
2013-05-18 03:43:00,61.0,60.0,-100.00,North,0,1.0,7.0,95,0.05,,,0.21,0.000000,,2013-05-18 07:43:00,
2013-05-18 03:53:00,61.0,60.0,-100.00,North,0,1.0,7.0,95,0.05,,,0.21,0.000000,,2013-05-18 07:53:00,
2013-05-18 04:01:00,61.0,60.0,-100.00,North,0,1.0,7.0,95,0.05,,,0.21,0.000000,,2013-05-18 08:01:00,
2013-05-18 04:33:00,61.0,59.0,-100.00,SE,132,3.0,7.0,94,0.02,,,0.23,0.000000,,2013-05-18 08:33:00,
2013-05-18 04:42:00,61.0,59.0,-100.00,SE,132,3.0,7.0,94,0.02,,,0.23,0.000000,,2013-05-18 08:42:00,
2013-05-18 04:52:00,61.0,59.0,-100.00,SE,132,3.0,7.0,94,0.02,,,0.23,0.000000,,2013-05-18 08:52:00,
2013-05-18 05:02:00,61.0,59.0,-100.00,SE,132,3.0,7.0,94,0.02,,,0.23,0.000000,,2013-05-18 09:02:00,
2013-05-18 05:33:00,61.0,59.0,-100.00,SW,228,4.0,14.0,94,0.01,,,0.24,0.000000,,2013-05-18 09:33:00,
2013-05-18 05:43:00,61.0,59.0,-100.00,SW,228,4.0,14.0,94,0.01,,,0.24,0.000000,,2013-05-18 09:43:00,
2013-05-18 05:53:00,61.0,59.0,-100.00,SW,228,4.0,14.0,94,0.01,,,0.24,0.000000,,2013-05-18 09:53:00,
2013-05-18 06:03:00,61.0,59.0,-100.00,SW,228,4.0,14.0,94,0.01,,,0.24,0.000000,,2013-05-18 10:03:00,
2013-05-18 06:33:00,62.0,60.0,-100.00,South,169,4.0,10.0,92,0.00,,,0.24,0.000000,,2013-05-18 10:33:00,
2013-05-18 06:42:00,62.0,60.0,-100.00,South,169,4.0,10.0,92,0.00,,,0.24,0.000000,,2013-05-18 10:42:00,
2013-05-18 06:53:00,62.0,60.0,-100.00,South,169,4.0,10.0,92,0.00,,,0.24,0.000000,,2013-05-18 10:53:00,
2013-05-18 07:03:00,62.0,60.0,-100.00,South,169,4.0,10.0,92,0.00,,,0.24,0.000000,,2013-05-18 11:03:00,
2013-05-18 07:33:00,62.0,59.0,-100.00,SSE,161,5.0,14.0,89,0.00,,,0.24,2.000000,,2013-05-18 11:33:00,
2013-05-18 07:42:00,62.0,59.0,-100.00,SSE,161,5.0,14.0,89,0.00,,,0.24,2.000000,,2013-05-18 11:42:00,
2013-05-18 07:52:00,62.0,59.0,-100.00,SSE,161,5.0,14.0,89,0.00,,,0.24,2.000000,,2013-05-18 11:52:00,
2013-05-18 08:02:00,62.0,59.0,-100.00,SSE,161,5.0,14.0,89,0.00,,,0.24,2.000000,,2013-05-18 12:02:00,
2013-05-18 08:33:00,61.0,59.0,-100.00,SE,146,3.0,12.0,93,0.04,,,0.28,6.000000,,2013-05-18 12:33:00,
2013-05-18 08:42:00,61.0,59.0,-100.00,SE,146,3.0,12.0,93,0.04,,,0.28,6.000000,,2013-05-18 12:42:00,
2013-05-18 08:52:00,61.0,59.0,-100.00,SE,146,3.0,12.0,93,0.04,,,0.28,6.000000,,2013-05-18 12:52:00,
2013-05-18 09:01:00,61.0,59.0,-100.00,SE,146,3.0,12.0,93,0.04,,,0.28,6.000000,,2013-05-18 13:01:00,
2013-05-18 09:33:00,61.0,59.0,-100.00,South,175,2.0,7.0,93,0.00,,,0.28,46.000000,,2013-05-18 13:33:00,
2013-05-18 09:43:00,61.0,59.0,-100.00,South,175,2.0,7.0,93,0.00,,,0.28,46.000000,,2013-05-18 13:43:00,
2013-05-18 09:53:00,61.0,59.0,-100.00,South,175,2.0,7.0,93,0.00,,,0.28,46.000000,,2013-05-18 13:53:00,
2013-05-18 10:04:00,61.0,59.0,-100.00,South,175,2.0,7.0,93,0.00,,,0.28,46.000000,,2013-05-18 14:04:00,
2013-05-18 10:33:00,62.0,59.0,-100.00,SE,133,6.0,11.0,90,0.00,,,0.28,149.000000,,2013-05-18 14:33:00,
2013-05-18 10:42:00,62.0,59.0,-100.00,SE,133,6.0,11.0,90,0.00,,,0.28,149.000000,,2013-05-18 14:42:00,
2013-05-18 10:54:00,62.0,59.0,-100.00,SE,133,6.0,11.0,90,0.00,,,0.28,149.000000,,2013-05-18 14:54:00,
2013-05-18 11:03:00,62.0,59.0,-100.00,SE,133,6.0,11.0,90,0.00,,,0.28,149.000000,,2013-05-18 15:03:00,
2013-05-18 11:33:00,62.0,58.0,-100.00,SE,135,5.0,13.0,88,0.00,,,0.28,216.000000,,2013-05-18 15:33:00,
2013-05-18 11:43:00,62.0,58.0,-100.00,SE,135,5.0,13.0,88,0.00,,,0.28,216.000000,,2013-05-18 15:43:00,
2013-05-18 11:54:00,62.0,58.0,-100.00,SE,135,5.0,13.0,88,0.00,,,0.28,216.000000,,2013-05-18 15:54:00,
2013-05-18 12:03:00,62.0,58.0,-100.00,SE,135,5.0,13.0,88,0.00,,,0.28,216.000000,,2013-05-18 16:03:00,
2013-05-18 12:33:00,63.0,59.0,-100.00,SSE,162,6.0,11.0,88,0.00,,,0.28,258.000000,,2013-05-18 16:33:00,
2013-05-18 12:42:00,63.0,59.0,-100.00,SSE,162,6.0,11.0,88,0.00,,,0.28,258.000000,,2013-05-18 16:42:00,
2013-05-18 12:52:00,63.0,59.0,-100.00,SSE,162,6.0,11.0,88,0.00,,,0.28,258.000000,,2013-05-18 16:52:00,
2013-05-18 13:03:00,63.0,59.0,-100.00,SSE,162,6.0,11.0,88,0.00,,,0.28,258.000000,,2013-05-18 17:03:00,
2013-05-18 13:33:00,67.0,61.0,-100.00,South,188,7.0,12.0,82,0.00,,,0.28,475.000000,,2013-05-18 17:33:00,
2013-05-18 13:42:00,67.0,61.0,-100.00,South,188,7.0,12.0,82,0.00,,,0.28,475.000000,,2013-05-18 17:42:00,
2013-05-18 13:52:00,67.0,61.0,-100.00,South,188,7.0,12.0,82,0.00,,,0.28,475.000000,,2013-05-18 17:52:00,
2013-05-18 14:01:00,67.0,61.0,-100.00,South,188,7.0,12.0,82,0.00,,,0.28,475.000000,,2013-05-18 18:01:00,
2013-05-18 14:32:00,66.0,61.0,-100.00,SE,142,4.0,11.0,84,0.00,,,0.28,387.000000,,2013-05-18 18:32:00,
2013-05-18 14:42:00,66.0,61.0,-100.00,SE,142,4.0,11.0,84,0.00,,,0.28,387.000000,,2013-05-18 18:42:00,
2013-05-18 14:52:00,66.0,61.0,-100.00,SE,142,4.0,11.0,84,0.00,,,0.28,387.000000,,2013-05-18 18:52:00,
2013-05-18 15:02:00,66.0,61.0,-100.00,SE,142,4.0,11.0,84,0.00,,,0.28,387.000000,,2013-05-18 19:02:00,
2013-05-18 15:32:00,67.0,61.0,-100.00,SSE,161,6.0,11.0,82,0.00,,,0.28,237.000000,,2013-05-18 19:32:00,
2013-05-18 15:42:00,67.0,61.0,-100.00,SSE,161,6.0,11.0,82,0.00,,,0.28,237.000000,,2013-05-18 19:42:00,
2013-05-18 15:52:00,67.0,61.0,-100.00,SSE,161,6.0,11.0,82,0.00,,,0.28,237.000000,,2013-05-18 19:52:00,
2013-05-18 16:02:00,67.0,61.0,-100.00,SSE,161,6.0,11.0,82,0.00,,,0.28,237.000000,,2013-05-18 20:02:00,
2013-05-18 16:32:00,66.0,62.0,-100.00,SE,133,4.0,8.0,87,0.00,,,0.28,223.000000,,2013-05-18 20:32:00,
2013-05-18 16:42:00,66.0,62.0,-100.00,SE,133,4.0,8.0,87,0.00,,,0.28,223.000000,,2013-05-18 20:42:00,
2013-05-18 16:52:00,66.0,62.0,-100.00,SE,133,4.0,8.0,87,0.00,,,0.28,223.000000,,2013-05-18 20:52:00,
2013-05-18 17:01:00,66.0,62.0,-100.00,SE,133,4.0,8.0,87,0.00,,,0.28,223.000000,,2013-05-18 21:01:00,
2013-05-18 17:33:00,65.0,62.0,-100.00,SSE,163,4.0,10.0,90,0.00,,,0.28,142.000000,,2013-05-18 21:33:00,
2013-05-18 17:44:00,65.0,62.0,-100.00,SSE,163,4.0,10.0,90,0.00,,,0.28,142.000000,,2013-05-18 21:44:00,
2013-05-18 17:53:00,65.0,62.0,-100.00,SSE,163,4.0,10.0,90,0.00,,,0.28,142.000000,,2013-05-18 21:53:00,
2013-05-18 18:03:00,65.0,62.0,-100.00,SSE,163,4.0,10.0,90,0.00,,,0.28,142.000000,,2013-05-18 22:03:00,
2013-05-18 18:33:00,65.0,63.0,-100.00,SSE,148,4.0,8.0,92,0.00,,,0.28,112.000000,,2013-05-18 22:33:00,
2013-05-18 18:42:00,65.0,63.0,-100.00,SSE,148,4.0,8.0,92,0.00,,,0.28,112.000000,,2013-05-18 22:42:00,
2013-05-18 18:53:00,65.0,63.0,-100.00,SSE,148,4.0,8.0,92,0.00,,,0.28,112.000000,,2013-05-18 22:53:00,
2013-05-18 19:02:00,65.0,63.0,-100.00,SSE,148,4.0,8.0,92,0.00,,,0.28,112.000000,,2013-05-18 23:02:00,
2013-05-18 19:32:00,65.0,62.0,-100.00,South,176,5.0,9.0,90,0.00,,,0.28,116.000000,,2013-05-18 23:32:00,
2013-05-18 19:42:00,65.0,62.0,-100.00,South,176,5.0,9.0,90,0.00,,,0.28,116.000000,,2013-05-18 23:42:00,
2013-05-18 19:53:00,65.0,62.0,-100.00,South,176,5.0,9.0,90,0.00,,,0.28,116.000000,,2013-05-18 23:53:00,
2013-05-18 20:02:00,65.0,62.0,-100.00,South,176,5.0,9.0,90,0.00,,,0.28,116.000000,,2013-05-19 00:02:00,
2013-05-18 21:32:00,64.0,63.0,-100.00,SE,142,3.0,8.0,95,-99.99,,,0.28,1.000000,,2013-05-19 01:32:00,
2013-05-18 21:42:00,64.0,63.0,-100.00,SE,142,3.0,8.0,95,-99.99,,,0.28,1.000000,,2013-05-19 01:42:00,
2013-05-18 21:52:00,64.0,63.0,-100.00,SE,142,3.0,8.0,95,-99.99,,,0.28,1.000000,,2013-05-19 01:52:00,
2013-05-18 22:02:00,64.0,63.0,-100.00,SE,142,3.0,8.0,95,-99.99,,,0.28,1.000000,,2013-05-19 02:02:00,
2013-05-18 22:32:00,64.0,63.0,-100.00,SE,142,5.0,9.0,95,0.00,,,0.28,0.000000,,2013-05-19 02:32:00,
2013-05-18 22:42:00,64.0,63.0,-100.00,SE,142,5.0,9.0,95,0.00,,,0.28,0.000000,,2013-05-19 02:42:00,
2013-05-18 22:52:00,64.0,63.0,-100.00,SE,142,5.0,9.0,95,0.00,,,0.28,0.000000,,2013-05-19 02:52:00,
2013-05-18 23:01:00,64.0,63.0,-100.00,SE,142,5.0,9.0,95,0.00,,,0.28,0.000000,,2013-05-19 03:01:00,
2013-05-18 23:33:00,64.0,63.0,-100.00,SSE,148,4.0,7.0,95,0.00,,,0.28,0.000000,,2013-05-19 03:33:00,
2013-05-18 23:43:00,64.0,63.0,-100.00,SSE,148,4.0,7.0,95,0.00,,,0.28,0.000000,,2013-05-19 03:43:00,
2013-05-18 23:53:00,64.0,63.0,-100.00,SSE,148,4.0,7.0,95,0.00,,,0.28,0.000000,,2013-05-19 03:53:00,